Vorticity
13 5 7 11 9 10 14 12 8 11 7 9 6 5 5 4 6 5 5 5 6 7 6 9 8 8 8 7 7 3 5 6 6 6 6 6 5 5 5 7 7 3 4
4 2 2 9 12 11 10 13 9 3 5 11 11 7 6 5 4 5 5 6 8 4 9 10 7 6 8 9 5 9 6 6 5 6 6 7 7 6 6 6 5 3 4
14 18 10 2 7 9 11 11 7 8 5 8 12 11 7 6 5 3 4 5 5 6 4 9 11 8 6 8 11 9 6 9 6 5 5 7 6 6 6 6 4 4 3
8 17 35 11 2 5 5 9 14 11 8 8 5 6 7 7 5 6 6 3 5 7 7 5 8 14 7 8 8 8 8 8 7 7 5 4 5 6 5 5 5 4 4
12 17 22 11 6 9 1 5 3 10 12 11 11 4 7 10 9 10 9 7 9 9 4 10 8 9 12 10 8 8 8 9 9 10 5 6 5 6 5 5 4 3 3
13 9 12 9 1 6 6 7 2 10 3 10 6 9 9 6 6 6 6 10 10 9 2 4 6 8 9 9 6 7 8 7 9 8 12 8 6 5 5 4 5 5 3
9 13 18 13 11 10 4 13 16 19 10 2 4 12 7 6 7 6 4 5 9 10 9 1 3 6 6 7 7 7 7 7 7 8 6 7 8 8 10 4 5 4 7
9 10 12 14 12 18 12 19 11 7 13 5 4 5 10 7 5 6 7 7 11 7 9 3 7 3 7 5 6 7 7 8 8 7 7 7 6 6 7 8 9 6 7
11 9 8 9 11 13 13 19 6 20 15 -2 27 23 8 3 12 7 6 4 4 4 5 3 3 3 6 8 7 6 5 5 6 7 7 6 4 4 3 4 6 8 7
11 11 9 6 7 9 13 12 15 13 16 11 28 56 11 -0 6 10 8 -2 -5 9 8 13 11 9 9 9 8 11 10 5 6 6 7 8 9 6 7 6 5 5 4
4 10 10 8 7 6 6 8 11 11 14 16 12 24 15 1 7 5 9 -1 -1 4 14 5 7 7 9 6 7 6 7 6 5 6 4 5 6 8 7 7 8 5 6
5 5 8 7 7 7 8 7 6 8 12 10 10 12 10 8 14 17 18 12 10 18 18 0 11 6 4 6 2 11 4 3 6 6 10 5 4 4 7 9 7 8 15
7 7 7 5 4 6 5 7 7 7 7 8 14 11 11 14 17 15 9 6 7 26 19 13 8 20 21 34 23 5 3 13 7 2 10 -0 8 1 11 11 14 7 10
11 8 6 5 6 7 4 3 8 8 8 8 9 10 14 12 8 9 15 14 10 12 20 19 10 6 7 13 21 10 7 24 35 18 17 23 19 9 19 11 -0 8 11
10 8 11 9 5 3 7 12 13 10 10 10 9 11 11 12 15 15 13 9 8 9 9 9 13 9 11 13 9 13 11 12 7 9 21 17 23 14 16 2 13 16 12
10 8 6 5 9 18 18 15 12 12 14 10 9 8 9 10 10 9 7 8 9 9 8 9 9 9 8 9 9 9 10 10 11 12 13 9 8 8 12 9 20 5 15
11 13 11 14 19 15 13 16 17 13 14 13 10 9 8 7 7 7 6 7 6 6 6 6 5 5 5 5 5 5 5 4 4 6 9 13 14 12 10 14 6 12 5
4 13 5 9 13 12 12 14 15 15 15 11 11 10 9 8 8 7 6 6 6 7 6 7 7 7 8 7 6 7 8 8 8 7 7 7 7 8 8 14 12 11 7
12 12 5 10 13 14 13 13 14 13 14 14 13 13 12 12 11 10 10 10 10 10 10 11 9 9 11 11 12 16 19 17 17 15 15 14 14 13 11 13 13 8 17
12 3 8 13 14 13 11 12 13 11 10 10 11 11 13 16 25 34 36 33 28 27 25 23 26 27 29 32 31 30 27 25 23 22 21 24 24 14 13 22 29 17 17
-1 9 4 7 11 10 10 10 11 14 15 6 7 11 24 22 13 11 10 7 0 2 12 24 27 15 13 11 12 13 16 16 19 24 25 21 21 30 31 15 15 17 21
2 10 3 3 9 13 11 18 15 14 6 4 1 18 22 14 17 22 25 26 25 22 13 16 21 19 13 13 8 12 11 13 3 30 27 24 17 24 24 25 25 21 17
8 5 4 4 14 13 19 11 12 4 10 4 10 4 3 6 7 8 7 6 7 11 19 26 23 17 16 16 15 11 12 9 18 23 31 22 25 9 3 2 10 15 12
9 6 4 11 12 19 12 16 6 15 13 14 19 10 11 15 7 6 7 8 6 11 13 10 13 18 22 21 21 20 20 23 14 13 8 9 21 32 20 12 16 14 10
5 5 6 11 18 15 12 15 16 15 11 8 9 13 10 4 7 7 8 7 7 8 6 9 15 13 14 19 21 19 14 22 21 21 14 16 11 13 14 13 14 15 15
5 5 8 16 21 15 17 9 9 7 8 11 12 10 9 8 9 9 9 8 9 10 9 6 7 8 8 9 11 12 12 11 10 11 12 15 15 14 13 13 12 11 12
Height
5880 5882 5884 5885 5886 5888 5890 5893 5896 5899 5901 5903 5907 5910 5912 5916 5918 5919 5921 5922 5923 5924 5924 5926 5928 5929 5930 5931 5932 5932 5933 5932 5932 5933 5933 5933 5933 5932 5932 5931 5931 5930 5929
5878 5879 5881 5883 5884 5886 5888 5890 5894 5896 5897 5899 5902 5905 5908 5910 5914 5917 5918 5919 5919 5921 5922 5923 5924 5925 5926 5927 5928 5929 5930 5930 5930 5930 5930 5931 5930 5930 5929 5928 5928 5927 5926
5873 5874 5876 5880 5882 5883 5885 5888 5891 5893 5895 5896 5899 5901 5904 5907 5909 5912 5915 5916 5917 5917 5919 5920 5921 5922 5923 5924 5924 5925 5925 5926 5926 5926 5926 5927 5927 5926 5926 5925 5923 5922 5921
5869 5869 5869 5873 5877 5880 5881 5884 5886 5888 5891 5892 5894 5897 5900 5902 5905 5906 5909 5911 5912 5913 5914 5915 5916 5917 5918 5919 5919 5919 5920 5920 5921 5921 5921 5922 5922 5921 5921 5920 5919 5918 5916
5863 5865 5866 5869 5872 5875 5877 5879 5881 5883 5885 5886 5889 5892 5894 5896 5898 5900 5903 5905 5908 5909 5910 5911 5911 5912 5913 5913 5914 5914 5914 5915 5916 5916 5917 5917 5916 5914 5914 5913 5912 5911 5910
5860 5862 5864 5866 5868 5870 5872 5874 5875 5876 5878 5880 5882 5884 5887 5890 5892 5894 5897 5900 5901 5903 5904 5905 5906 5906 5906 5907 5907 5908 5909 5909 5910 5910 5910 5910 5909 5909 5906 5906 5905 5904 5904
5857 5858 5860 5862 5863 5865 5866 5868 5869 5870 5872 5874 5876 5878 5880 5882 5885 5888 5890 5893 5895 5896 5897 5899 5900 5899 5899 5899 5899 5901 5902 5902 5902 5903 5903 5902 5902 5900 5900 5897 5896 5896 5894
5854 5855 5856 5857 5857 5858 5860 5861 5863 5865 5866 5867 5869 5871 5873 5875 5877 5879 5881 5884 5886 5887 5888 5889 5890 5891 5891 5891 5891 5893 5894 5894 5895 5894 5894 5893 5892 5891 5890 5890 5889 5886 5886
5850 5850 5851 5852 5853 5853 5854 5854 5856 5857 5859 5859 5859 5860 5864 5866 5868 5871 5873 5874 5877 5879 5880 5881 5882 5882 5882 5881 5882 5884 5884 5885 5882 5883 5884 5884 5883 5882 5881 5880 5879 5877 5876
5846 5847 5847 5848 5848 5849 5849 5850 5850 5851 5851 5851 5849 5847 5853 5858 5861 5863 5866 5867 5869 5870 5871 5873 5872 5872 5871 5871 5874 5875 5877 5874 5870 5872 5872 5872 5872 5872 5871 5868 5866 5865 5863
5841 5842 5843 5844 5844 5844 5845 5845 5845 5846 5846 5846 5845 5847 5849 5851 5853 5854 5856 5858 5860 5861 5861 5862 5860 5864 5862 5861 5861 5862 5864 5863 5862 5860 5861 5860 5859 5860 5859 5856 5854 5854 5852
5835 5837 5838 5839 5839 5840 5840 5840 5840 5840 5841 5841 5840 5841 5843 5844 5845 5846 5847 5848 5848 5847 5848 5850 5850 5851 5851 5848 5848 5848 5848 5849 5849 5848 5849 5849 5846 5847 5847 5846 5842 5842 5840
5828 5830 5831 5832 5834 5835 5835 5835 5835 5834 5834 5835 5835 5836 5837 5837 5837 5837 5837 5837 5837 5836 5837 5838 5838 5839 5837 5836 5835 5834 5835 5834 5834 5834 5836 5836 5835 5834 5834 5833 5830 5829 5828
5822 5823 5824 5826 5827 5828 5828 5828 5828 5827 5827 5827 5827 5827 5828 5828 5829 5829 5829 5828 5828 5827 5827 5827 5828 5827 5826 5825 5824 5824 5823 5820 5819 5820 5820 5821 5822 5822 5820 5819 5818 5817 5815
5816 5817 5818 5819 5819 5820 5820 5820 5819 5819 5819 5820 5820 5820 5820 5820 5821 5821 5821 5820 5820 5819 5819 5819 5819 5817 5816 5816 5815 5814 5813 5811 5810 5809 5808 5808 5809 5808 5807 5807 5806 5802 5803
5810 5811 5811 5812 5813 5812 5811 5811 5811 5811 5811 5812 5813 5813 5813 5813 5814 5814 5813 5812 5812 5811 5811 5810 5809 5808 5807 5806 5805 5804 5803 5800 5799 5798 5797 5796 5797 5796 5795 5795 5793 5791 5790
5803 5804 5805 5805 5805 5805 5805 5804 5803 5803 5803 5804 5805 5805 5806 5806 5805 5805 5804 5803 5803 5802 5801 5801 5800 5799 5797 5796 5794 5792 5791 5790 5788 5787 5785 5784 5784 5784 5783 5782 5781 5781 5779
5795 5796 5798 5799 5799 5799 5798 5798 5797 5796 5795 5796 5797 5798 5798 5797 5797 5797 5796 5795 5794 5792 5790 5789 5788 5786 5784 5783 5781 5779 5777 5776 5774 5773 5772 5771 5771 5770 5769 5769 5769 5768 5767
5786 5788 5791 5792 5792 5792 5790 5790 5791 5791 5790 5789 5789 5789 5789 5788 5787 5786 5785 5783 5782 5780 5778 5776 5774 5772 5770 5769 5766 5765 5763 5763 5761 5760 5759 5758 5758 5757 5757 5757 5757 5757 5755
5779 5782 5785 5785 5784 5785 5784 5784 5784 5784 5784 5783 5782 5782 5780 5778 5776 5774 5773 5772 5770 5768 5766 5763 5760 5758 5757 5755 5754 5752 5750 5748 5747 5746 5745 5743 5743 5743 5743 5743 5742 5741 5741
5773 5776 5778 5778 5778 5779 5779 5778 5778 5778 5777 5776 5775 5774 5772 5770 5769 5768 5766 5765 5762 5760 5756 5753 5750 5749 5748 5747 5746 5743 5741 5738 5736 5734 5733 5732 5731 5731 5730 5730 5731 5731 5731
5766 5770 5771 5770 5771 5772 5771 5771 5771 5772 5771 5769 5769 5767 5766 5765 5763 5761 5759 5758 5755 5753 5750 5747 5744 5742 5741 5740 5738 5737 5735 5732 5730 5727 5726 5725 5723 5722 5722 5721 5722 5722 5722
5760 5761 5762 5764 5764 5764 5763 5764 5765 5766 5764 5763 5763 5763 5762 5761 5760 5757 5755 5753 5751 5748 5745 5742 5739 5737 5735 5733 5732 5730 5728 5726 5725 5722 5720 5718 5717 5716 5716 5715 5714 5714 5715
5752 5754 5757 5758 5758 5757 5756 5758 5758 5759 5759 5757 5757 5757 5757 5756 5755 5753 5751 5748 5746 5743 5741 5738 5735 5732 5729 5727 5725 5724 5722 5721 5719 5717 5715 5713 5712 5711 5710 5710 5709 5709 5709
5746 5748 5751 5751 5750 5750 5751 5751 5752 5753 5752 5753 5753 5752 5753 5753 5752 5750 5747 5744 5742 5740 5738 5735 5733 5730 5727 5724 5722 5720 5719 5717 5714 5712 5711 5710 5708 5707 5706 5706 5705 5706 5705
5740 5742 5743 5743 5744 5745 5746 5745 5746 5748 5747 5747 5748 5747 5748 5748 5746 5745 5743 5740 5738 5736 5735 5733 5731 5729 5726 5724 5721 5719 5716 5714 5712 5710 5708 5706 5705 5704 5703 5702 5702 5702 5701